EW9427 Weather Reports


Display with metric or nautical units.
time (UTC)temp
F
wind
direction
speed
MPH
gust
MPH
rain 1hr
in
rain 24hr
in
rain mn
in
humidity
%
barometer
mb
20260505191507 48 270 11.0 18.0 0.00 0.00 0.00 37 1019.3
20260505190004 47 342 10.0 22.0 0.00 0.00 0.00 37 1019.3
20260505184505 48 322 12.0 21.0 0.00 0.00 0.00 37 1019.3
20260505174533 45 342 10.0 21.0 0.00 0.00 0.00 43 1019.5
20260505173029 45 360 9.0 16.0 0.00 0.00 0.00 45 1019.6
20260505171528 45 331 12.0 18.0 0.00 0.00 0.00 42 1019.6
20260505170024 43 350 10.0 15.0 0.00 0.00 0.00 46 1019.7
20260505164523 44 344 8.0 18.0 0.00 0.00 0.00 48 1019.7
20260505163020 42 346 10.0 17.0 0.00 0.00 0.00 52 1019.8
20260505161514 41 323 6.0 11.0 0.00 0.00 0.00 52 1019.8
20260505153009 39 316 4.0 10.0 0.00 0.00 0.00 61 1019.9
20260505151507 39 323 6.0 11.0 0.00 0.00 0.00 63 1020.0
20260505124552 33 326 3.0 5.0 0.00 0.00 0.00 74 1019.3
20260505123053 31 321 3.0 7.0 0.00 0.00 0.00 74 1019.2
20260505121610 32 323 3.0 5.0 0.00 0.00 0.00 73 1019.1
20260505120033 32 333 3.0 6.0 0.00 0.00 0.00 69 1019.1
20260505114533 33 355 5.0 8.0 0.00 0.00 0.00 67 1019.1
20260505113030 34 336 5.0 8.0 0.00 0.00 0.00 65 1019.0
20260505111534 35 355 4.0 9.0 0.00 0.00 0.00 62 1018.9
20260505110123 36 350 5.0 11.0 0.00 0.00 0.00 59 1019.0
20260505101517 37 343 5.0 10.0 0.00 0.00 0.00 56 1018.7
20260505100021 38 350 8.0 11.0 0.00 0.00 0.00 54 1018.5
20260505094515 37 345 3.0 5.0 0.00 0.00 0.00 57 1018.5
20260505093024 38 347 5.0 9.0 0.00 0.00 0.00 56 1018.5
20260505091516 37 355 5.0 8.0 0.00 0.00 0.00 56 1018.5
20260505090012 38 19 6.0 8.0 0.00 0.00 0.00 56 1018.4
20260505084511 38 5 5.0 6.0 0.00 0.00 0.00 55 1018.4
20260505083011 39 10 4.0 7.0 0.00 0.00 0.00 54 1018.4
20260505081516 39 355 4.0 6.0 0.00 0.00 0.00 55 1018.5
20260505080010 40 334 2.0 6.0 0.00 0.00 0.00 53 1018.4
20260505074510 40 351 5.0 9.0 0.00 0.00 0.00 54 1018.2
20260505073005 38 331 3.0 5.0 0.00 0.00 0.00 57 1018.4
20260505071503 37 317 0.0 2.0 0.00 0.00 0.00 56 1018.2
20260505070002 36 317 2.0 4.0 0.00 0.00 0.00 56 1018.5
20260505064610 37 317 2.0 4.0 0.00 0.00 0.00 55 1018.4
20260505063059 37 348 2.0 6.0 0.00 0.00 0.00 55 1018.2
20260505061556 36 26 4.0 9.0 0.00 0.00 0.00 56 1018.1
20260505060052 36 15 4.0 8.0 0.00 0.00 0.00 56 1018.1
20260505054616 35 25 5.0 9.0 0.00 0.00 0.00 57 1018.1
20260505053050 35 18 7.0 9.0 0.00 0.00 0.00 55 1018.0
20260505051546 36 340 4.0 8.0 0.00 0.00 0.00 55 1017.9
20260505041546 38 38 2.0 5.0 0.00 0.00 0.00 51 1017.8
20260505040030 39 32 2.0 5.0 0.00 0.00 0.00 50 1017.7
20260505034529 40 41 3.0 6.0 0.00 0.00 0.00 49 1017.7
20260505033026 41 26 2.0 5.0 0.00 0.00 0.00 47 1017.4
20260505031529 43 21 7.0 11.0 0.00 0.00 0.00 45 1017.3
20260505030017 44 34 8.0 16.0 0.00 0.00 0.00 44 1017.1
20260505024513 45 42 9.0 14.0 0.00 0.00 0.00 42 1016.8
20260505023015 46 27 15.0 18.0 0.00 0.00 0.00 41 1016.7
20260505021511 47 17 15.0 22.0 0.00 0.00 0.00 39 1016.5
20260505020011 49 17 16.0 24.0 0.00 0.00 0.00 36 1016.3
20260505014515 51 11 17.0 24.0 0.00 0.00 0.00 32 1016.1
20260505013010 51 342 18.0 24.0 0.00 0.00 0.00 28 1015.9
20260505011514 52 348 14.0 21.0 0.00 0.00 0.00 27 1015.8
20260505010014 53 360 16.0 22.0 0.00 0.00 0.00 26 1015.7
20260505004508 54 346 13.0 22.0 0.00 0.00 0.00 24 1015.6
20260505003008 54 5 15.0 26.0 0.00 0.00 0.00 24 1015.5
20260505001507 55 317 17.0 25.0 0.00 0.00 0.00 24 1015.5
20260505000011 55 355 16.0 24.0 0.00 0.00 0.00 24 1015.5
20260504234505 55 9 17.0 28.0 0.00 0.00 0.00 25 1015.5
20260504233005 55 5 13.0 22.0 0.00 0.00 0.00 26 1015.5
20260504231504 55 300 13.0 27.0 0.00 0.00 0.00 26 1015.5
20260504230002 55 333 18.0 26.0 0.00 0.00 0.00 26 1015.6
20260504224508 55 296 17.0 29.0 0.00 0.00 0.00 26 1015.5
20260504223114 54 321 19.0 25.0 0.00 0.00 0.00 27 1015.5
20260504221600 55 337 16.0 29.0 0.00 0.00 0.00 29 1015.5
20260504220101 54 329 15.0 26.0 0.00 0.00 0.00 29 1015.6
20260504214558 55 325 16.0 27.0 0.00 0.00 0.00 31 1015.7
20260504213102 55 11 13.0 28.0 0.00 0.00 0.00 31 1015.7
20260504211600 52 319 16.0 24.0 0.00 0.00 0.00 32 1015.9
20260504204555 55 325 17.0 27.0 0.00 0.00 0.00 33 1016.0
20260504203052 54 325 14.0 26.0 0.00 0.00 0.00 35 1015.9
20260504201552 55 309 15.0 29.0 0.00 0.00 0.00 34 1015.8
20260504200059 53 335 16.0 25.0 0.00 0.00 0.00 34 1015.7
20260504194546 54 317 11.0 20.0 0.00 0.00 0.00 35 1015.8
20260504193045 52 19 12.0 25.0 0.00 0.00 0.00 36 1015.9